STARLINK-32378 (61064 NORAD) Tracking and Keplerian Element Data

This shows tracking and keplerian element data for the satellite.

Feedback or suggestion? Click here.




ElementValue
Catalog61064
NameSTARLINK-32378
Epoch Orbit590
Epoch Day286.91668981
Epoch Year2024
RAAN321.7653
Inclination53.16
Eccentricity9.99E-05
Argument of Perigee92.106
Mean Anonmoly313.978
Mean Motion15.39624002
Decay Rate-5.635E-05
L11 61064U 24164Q 24286.91668981 -.00005635 00000+0 -13099-3 0 9999
L22 61064 53.1600 321.7653 0000999 92.1060 313.9780 15.39624002 5903



Live tracking and technical data element details for STARLINK-32378 (NORAD 61064). STARLINK-32378 can be tracked NOW for your location showing map with azimuth and elevation plus other details from your city location.







IsCatalogInMostPopularTable: catalog: 61064, numindb: 24
Update: records affected: 1



GetName: 61064 STARLINK-32378

Hit Count: updated at: Wed, 04 Dec 2024 09:33:29 GMT